Regional Weather Roundup
Issued by NWS

Home | Current Version | Previous Version | Graphics & Text | Print | Product List | Glossary On
Versions: 1 2 3 4 5 6 7 8 9 10 11 12 13 14 15 16 17 18 19 20 21 22 23 24 25 26 27 28 29 30 31 32 33 34 35 36 37 38 39 40 41 42 43 44 45 46 47 48 49 50
000
ASUS43 KLSX 020959
RWRMO

WEATHER SUMMARY FOR MISSOURI
NATIONAL WEATHER SERVICE SPRINGFIELD MO
500 AM CDT TUE JUN 02 2015

NOTE: "FAIR" INDICATES FEW OR NO CLOUDS BELOW 12,000 FEET WITH NO
       SIGNIFICANT WEATHER AND/OR OBSTRUCTIONS TO VISIBILITY.
       CURRENT SKY AND/OR WEATHER CONDITIONS ARE NOT AVAILABLE FOR
       CHILLICOTHE AND FARMINGTON.

MOZ001>031-035>038-043-044-053-054-021100-
...NORTHERN AND WESTERN MISSOURI...

CITY           SKY/WX    TMP DP  RH WIND       PRES   REMARKS
KANSAS CTY INT CLOUDY    59  53  80 SE8       30.09F
KANSAS C DTWN  CLOUDY    61  51  70 SE7       30.09F
LEE`S SUMMIT   CLOUDY    59  53  80 SE6       30.11S
ST JOSEPH      CLOUDY    60  53  77 S8        30.09F
CHILLICOTHE      N/A     61  54  77 SE5       30.13S
KIRKSVILLE     CLOUDY    52  52 100 CALM      30.14F

$$
MOZ066>068-077>081-088>096-101>105-021100-
...SOUTHWEST MISSOURI...

CITY           SKY/WX    TMP DP  RH WIND       PRES   REMARKS
SPRINGFIELD    MOCLDY    56  53  90 SE5       30.10S
JOPLIN         PTCLDY    55  54  96 E7        30.07F

$$
MOZ032>034-039>042-045>050-055>058-069>072-021100-
...CENTRAL MISSOURI...

CITY           SKY/WX    TMP DP  RH WIND       PRES   REMARKS
COLUMBIA       CLOUDY    58  56  93 NE3       30.13S
JEFFERSON CITY CLOUDY    59  56  89 CALM      30.13S
ROLLA          CLOUDY    57  56  96 CALM      30.11S FOG
SEDALIA        CLOUDY    59  54  83 SE5       30.12F
OSAGE BEACH    CLOUDY    57  55  94 CALM      30.12F

$$
MOZ051-052-059>065-021100-
...EAST CENTRAL MISSOURI...

CITY           SKY/WX    TMP DP  RH WIND       PRES   REMARKS
ST LOUIS INTL  MOCLDY    61  56  83 CALM      30.14R
SPIRIT OF STL  CLOUDY    59  58  96 CALM      30.12S
ST CHARLES     PTCLDY    59  57  93 NE5       30.13R

$$
MOZ072>076-082>087-097>100-106>115-021100-
...SOUTH CENTRAL AND SOUTHEAST MISSOURI...

CITY           SKY/WX    TMP DP  RH WIND       PRES   REMARKS
CAPE GIRARDEAU CLOUDY    59  55  87 NW5       30.10R
FARMINGTON     CLOUDY    57  55  94 E5        30.14F
POPLAR BLUFF   CLOUDY    61  57  87 N3        30.09S
WEST PLAINS    CLOUDY    59  55  87 CALM      30.13S

$$



USA.gov is the U.S. government's official web portal to all federal, state and local government web resources and services.